GFSSE_sfc_30mbdewp_336.txt.gz
Dewpoint
69 71 74 74 74 74 74 75 75 75 75 75 75 74 74 74 74 74 73 71 71 71 71 70 70 70 71 71 71 71 71 72 72 71 71 72 72 71 71 70 68 65 71
68 71 74 74 74 74 75 75 75 75 75 74 75 74 74 73 73 73 73 72 72 72 72 72 71 72 72 72 71 71 71 72 72 72 71 71 72 71 72 70 70 67 71
68 70 73 74 74 75 75 75 75 75 74 74 74 74 73 72 72 72 72 72 73 73 73 73 73 72 71 71 71 70 71 72 72 71 70 69 69 71 72 71 71 70 69
67 70 73 74 75 75 75 75 75 74 74 74 74 74 73 72 73 71 71 72 72 73 72 71 71 71 71 71 71 71 70 72 72 71 67 64 65 71 71 71 71 72 71
68 70 73 73 75 74 75 75 75 75 74 74 74 73 73 72 72 70 71 72 72 72 71 71 71 71 71 71 71 70 71 71 71 70 66 67 65 70 72 71 70 71 72
67 69 72 74 74 74 75 75 74 74 74 74 73 73 73 73 71 71 71 71 72 71 71 71 71 70 69 69 69 69 69 69 71 65 65 68 67 69 71 71 70 69 71
67 69 70 73 74 75 75 74 74 74 73 73 73 73 72 72 72 71 71 71 71 71 70 69 69 70 70 70 70 70 70 71 69 64 62 63 65 69 72 71 70 70 70
66 68 70 72 74 74 74 74 74 74 73 73 73 72 72 72 71 71 71 71 71 70 70 70 70 70 70 69 71 71 71 71 68 66 66 64 67 70 71 72 72 71 70
67 68 71 73 73 74 73 74 74 74 73 73 73 72 73 73 73 73 72 71 70 71 71 71 71 71 71 71 71 71 72 72 70 66 67 65 69 71 71 71 72 72 71
67 67 70 73 73 73 73 73 73 72 72 73 73 73 73 72 72 72 71 72 71 71 71 71 72 71 72 71 71 72 71 71 70 67 66 67 69 71 71 72 71 71 72
68 67 70 71 71 70 72 73 73 73 73 72 73 72 72 71 68 68 71 71 72 72 72 72 73 73 73 72 71 70 69 64 64 64 65 69 70 71 72 72 72 72 73
67 68 70 69 69 68 72 73 73 73 70 71 71 71 72 66 66 64 70 73 74 74 73 73 72 70 69 61 62 66 63 62 62 62 63 68 70 72 73 73 73 73 73
66 68 70 69 69 68 70 72 72 73 73 72 72 72 68 67 64 62 65 65 67 70 64 67 65 62 62 62 62 61 60 60 60 61 63 67 70 72 72 73 74 73 73
66 68 69 71 70 70 70 67 70 70 72 73 73 70 67 65 64 63 61 63 63 60 61 62 63 64 65 65 63 64 64 65 64 64 64 68 70 73 73 73 74 74 73
66 68 69 70 71 69 68 68 65 67 69 71 72 68 66 64 64 64 64 64 66 64 63 64 65 65 65 64 64 65 66 65 65 64 64 69 71 73 74 74 74 73 73
66 67 69 70 71 70 67 70 67 65 68 70 70 69 69 65 67 66 67 66 67 66 66 67 67 67 67 65 65 66 66 64 64 65 65 66 71 72 74 74 75 74 73
66 67 68 70 70 70 70 70 69 67 66 69 70 70 68 67 69 69 67 67 67 68 69 67 67 67 65 64 65 65 64 64 64 66 67 66 66 72 73 74 74 75 75
66 67 69 70 70 69 69 70 68 66 65 68 69 69 67 66 66 66 65 65 68 68 66 66 66 65 64 65 65 66 65 65 66 65 64 67 67 67 72 73 73 74 74
66 68 68 69 70 70 70 70 70 67 65 67 69 69 67 65 64 66 64 65 67 66 66 66 66 65 65 65 65 64 64 65 65 63 65 65 66 67 67 72 72 72 73
66 68 68 69 70 70 70 70 69 66 66 67 67 68 68 66 64 64 63 66 66 64 65 67 69 68 68 66 66 64 63 64 64 64 64 63 64 63 64 68 68 69 72
65 67 67 68 70 69 69 67 67 63 64 66 67 66 67 67 66 66 63 63 64 63 66 70 69 67 70 67 66 63 63 64 67 66 63 63 65 64 64 65 66 67 68
65 66 67 67 69 68 70 69 66 66 65 66 64 66 66 66 67 67 66 64 62 62 66 71 70 69 67 69 66 64 62 63 63 64 64 64 65 64 64 66 68 70 70
64 65 66 68 68 68 67 67 67 66 64 64 64 66 65 66 65 66 66 66 66 65 67 70 71 71 69 70 69 66 64 62 63 63 65 64 65 63 64 65 68 70 71
62 64 65 67 69 68 68 67 65 63 61 60 61 64 65 65 65 65 65 66 66 69 71 71 70 72 71 66 67 68 70 67 63 59 62 62 64 63 64 63 66 68 70
63 63 65 67 67 67 67 66 66 65 64 65 63 64 66 65 66 66 67 68 71 71 71 72 71 70 68 68 67 68 69 68 66 64 60 59 61 63 63 63 65 67 70
63 63 64 67 68 68 68 67 66 65 65 64 63 62 62 64 65 65 69 72 73 72 71 71 70 70 71 70 71 71 70 67 65 65 61 59 58 63 62 64 65 68 69

GFSSE_sfc_30mbdewp_339.txt.gz
Dewpoint
69 71 73 75 75 74 75 75 75 75 74 75 75 75 74 74 74 73 73 72 71 71 71 71 71 71 71 71 70 70 71 72 72 71 72 72 72 72 70 69 71 67 70
69 71 74 75 75 75 75 75 76 75 75 75 75 75 74 73 73 73 72 70 70 71 71 71 71 72 72 71 70 70 71 72 72 71 71 71 71 72 71 69 70 70 70
68 71 73 75 75 75 75 75 75 75 75 75 75 74 74 73 72 72 71 71 72 73 73 73 72 72 71 70 70 70 71 72 71 70 71 70 68 71 72 71 71 70 71
69 70 73 75 75 75 75 75 75 74 74 75 75 74 73 72 72 72 72 73 73 72 72 71 71 71 70 70 71 70 70 72 71 71 71 70 67 71 71 72 71 70 69
68 70 72 75 75 75 74 74 75 74 74 74 74 73 72 72 71 71 72 72 72 72 71 71 71 71 70 70 70 70 70 70 71 71 70 64 67 70 70 70 70 72 71
68 70 72 74 75 74 75 74 74 74 74 74 74 73 71 71 71 72 72 71 72 71 70 71 70 70 69 69 69 69 69 70 71 70 70 66 67 70 71 71 70 70 72
68 69 72 73 74 74 74 74 74 74 73 73 74 74 73 72 71 71 71 71 70 71 70 69 69 69 69 69 69 70 70 71 71 70 62 63 68 70 70 71 70 70 71
68 69 72 73 73 73 74 74 74 73 73 73 73 73 72 72 71 70 71 71 71 69 70 70 70 70 70 69 70 71 71 72 69 70 61 64 68 70 70 71 71 70 70
68 70 72 73 74 74 74 74 74 73 73 73 73 73 72 72 72 72 72 70 70 70 71 71 71 71 71 70 70 71 72 72 72 71 68 69 69 70 71 72 72 71 71
69 70 71 73 72 73 73 73 73 73 73 73 73 73 73 72 73 72 71 71 71 71 71 71 71 71 71 71 71 71 71 71 69 70 69 70 70 71 71 71 72 72 72
69 70 69 70 72 72 73 73 72 71 72 72 73 72 73 67 71 68 71 71 71 72 72 72 72 72 71 72 72 72 71 66 65 66 68 69 70 71 72 72 72 72 72
68 70 69 70 70 71 72 73 74 73 66 69 69 69 70 70 64 65 70 72 72 72 72 72 71 70 70 61 67 72 67 64 59 59 63 70 70 72 72 73 73 73 73
67 69 69 69 68 69 72 73 72 73 71 72 72 72 68 68 63 60 64 66 69 70 68 70 68 66 60 61 61 60 61 64 67 65 66 68 70 72 73 73 74 72 72
68 68 69 68 67 67 70 70 70 72 73 72 73 74 64 62 60 60 59 61 62 60 60 60 59 62 63 63 62 61 65 66 66 67 69 69 70 71 73 73 74 72 72
67 68 70 69 68 68 67 67 67 68 70 73 70 71 62 61 61 60 60 60 61 61 60 60 61 62 66 66 65 65 66 65 63 59 60 70 71 72 73 74 75 73 73
65 68 70 70 70 68 68 66 68 66 68 69 71 69 68 67 61 61 62 63 62 61 63 62 65 67 65 66 64 64 64 62 60 61 62 67 73 72 74 75 75 75 74
63 68 70 70 68 67 67 67 69 63 65 67 70 70 68 65 66 70 65 63 62 63 67 67 68 68 64 64 64 62 64 64 64 65 64 63 70 73 73 74 74 75 75
65 68 69 70 68 67 68 69 68 66 64 65 70 69 67 66 68 67 62 62 66 67 63 66 65 63 63 63 62 63 65 64 63 64 63 64 63 63 74 74 73 73 74
65 67 69 69 69 69 70 69 67 65 65 66 67 69 68 67 66 67 62 63 67 63 62 64 64 65 66 64 63 64 64 63 63 64 65 64 64 62 63 73 73 72 73
65 67 68 70 69 70 70 70 69 70 65 66 67 68 69 67 66 66 63 66 66 62 63 65 68 67 69 66 65 63 65 63 64 64 64 64 64 64 63 65 66 73 73
64 67 68 69 70 69 69 66 68 67 66 66 67 67 68 67 68 67 65 63 64 62 64 66 67 67 67 69 65 64 64 63 63 64 64 64 63 63 63 65 67 68 71
63 66 68 69 69 70 69 68 68 67 62 63 67 67 67 67 68 68 68 66 64 64 65 68 71 71 69 69 68 65 62 63 67 68 64 63 64 63 64 66 67 70 72
63 64 66 68 69 69 70 69 67 65 65 64 66 66 67 67 67 67 68 68 67 67 63 70 72 71 71 70 70 67 62 63 63 64 65 62 64 62 61 64 70 71 72
61 63 66 68 69 69 69 70 68 66 64 64 63 66 64 67 66 65 65 67 67 68 71 73 73 72 71 67 65 70 69 68 65 59 58 64 64 62 61 65 70 71 71
60 61 64 68 68 67 68 69 68 67 67 65 61 67 65 65 67 66 66 67 67 71 72 72 72 71 70 68 70 70 69 69 69 65 57 61 64 64 66 68 69 69 69
60 60 63 66 67 67 67 68 68 67 67 65 64 62 63 64 65 66 67 69 72 73 72 72 70 70 70 71 72 72 71 67 65 62 57 63 63 64 67 68 67 67 69

GFSSE_sfc_30mbdewp_342.txt.gz
Dewpoint
70 72 74 75 75 75 75 75 75 75 75 75 75 74 74 74 73 74 73 72 72 72 72 72 71 71 71 70 70 70 72 72 71 71 71 72 72 71 70 70 71 69 71
70 72 74 75 75 75 75 75 75 75 75 75 75 74 74 73 73 73 73 72 72 71 70 70 71 71 71 70 70 70 71 72 72 71 71 72 72 72 70 69 71 70 72
69 71 74 75 75 75 75 74 75 75 75 75 75 75 74 73 73 72 72 72 72 72 72 72 72 71 70 70 69 69 71 72 71 71 72 71 70 72 72 71 70 71 71
69 71 74 76 75 75 74 75 75 74 74 75 75 74 74 74 73 72 72 73 73 73 72 71 70 70 70 70 70 70 70 71 71 71 72 70 69 72 72 71 71 70 71
69 70 74 76 76 75 74 75 75 75 74 75 74 73 73 73 73 72 72 72 72 72 71 70 70 70 70 70 69 69 70 71 71 71 71 70 70 70 71 71 71 72 70
69 70 73 75 75 75 74 74 74 74 74 75 74 73 73 72 72 72 72 72 71 70 71 71 70 69 69 69 69 69 70 71 71 71 70 69 69 71 71 70 69 70 72
69 70 71 74 74 74 75 74 74 74 74 74 74 73 73 72 72 71 71 71 70 71 69 69 69 69 69 69 69 70 71 71 71 70 70 69 70 72 71 71 70 70 71
69 71 73 73 72 73 74 74 74 74 73 73 74 73 72 72 71 70 71 71 70 69 69 69 69 69 70 69 70 70 71 72 68 71 71 69 69 72 71 71 71 70 71
70 71 73 73 73 73 74 74 74 73 73 73 73 73 72 72 71 71 71 70 70 70 70 70 70 71 70 70 70 71 72 73 71 72 71 71 71 72 71 71 71 71 71
71 71 71 72 73 73 73 73 73 73 73 73 73 72 73 73 73 73 71 71 71 71 71 71 70 70 71 72 72 73 73 73 72 70 72 71 71 72 70 72 72 72 72
70 70 69 72 72 72 72 72 72 73 73 73 73 73 73 71 72 70 70 71 71 71 71 71 72 72 73 73 72 73 74 71 67 69 71 71 72 72 71 72 73 73 72
69 70 69 70 72 72 73 73 73 73 71 71 71 71 73 71 68 69 70 71 71 72 72 72 73 73 73 69 67 71 73 69 67 68 69 71 72 73 73 73 73 73 72
69 69 70 70 70 69 70 70 71 72 71 72 72 72 72 70 67 65 70 66 70 71 70 71 70 72 69 64 64 65 67 65 67 66 69 72 74 71 74 74 74 71 72
68 69 68 69 68 67 69 66 70 73 73 72 73 73 73 69 61 63 65 66 69 68 69 68 64 63 67 66 67 67 66 66 68 69 71 71 70 71 75 75 74 72 72
67 68 69 68 68 69 71 70 69 70 72 71 71 72 72 68 65 61 64 63 64 64 66 64 69 68 68 68 67 67 66 65 65 64 69 71 72 72 74 75 75 74 74
66 68 69 68 68 69 69 68 68 68 70 71 70 70 71 66 65 68 65 64 67 69 63 69 66 67 67 68 66 66 65 65 64 67 66 71 71 73 73 74 75 75 75
67 68 69 69 68 69 67 67 67 67 66 70 70 71 71 68 67 69 68 67 67 66 68 68 66 68 70 67 67 66 65 68 66 69 72 66 73 75 71 60 74 75 75
68 69 70 69 69 68 67 67 68 65 67 66 68 69 70 67 68 70 68 66 69 68 68 66 67 68 69 69 69 67 69 71 69 68 71 67 65 72 72 67 73 72 73
68 69 69 70 67 67 69 68 67 66 66 66 70 68 70 68 67 68 69 69 69 68 67 68 70 69 70 70 69 67 67 69 69 69 68 67 65 67 72 72 73 72 72
66 70 69 70 69 68 70 70 68 66 66 67 68 69 69 70 67 68 68 68 68 67 66 68 69 70 70 70 69 69 70 71 70 67 67 64 65 66 66 68 73 72 71
64 68 69 69 69 69 69 68 69 68 67 67 67 68 69 69 70 69 69 69 67 67 68 68 69 71 71 71 69 69 67 69 66 58 66 69 63 65 66 70 71 71 69
66 66 69 70 70 70 69 68 69 70 68 67 67 68 68 67 69 70 70 70 70 69 69 70 71 72 70 71 68 69 65 66 70 67 69 70 68 66 70 70 72 71 71
64 67 68 69 70 70 70 69 69 69 67 65 68 68 67 67 69 70 70 70 71 70 69 71 72 71 70 70 70 68 64 63 67 70 69 67 65 68 70 71 72 72 71
63 65 68 70 70 70 71 70 68 66 65 64 68 69 68 68 68 70 69 70 70 70 71 72 73 72 71 69 70 69 68 68 66 62 66 68 66 68 69 69 70 70 68
62 64 66 70 70 70 70 70 70 68 68 68 65 68 69 69 69 69 69 70 69 72 72 72 72 72 71 70 71 71 69 69 68 67 62 64 67 68 69 69 69 69 66
61 62 66 68 70 70 70 69 69 68 67 67 67 67 68 66 68 70 70 70 72 72 72 72 72 73 72 71 72 71 70 67 65 65 64 64 66 67 67 68 68 68 69

GFSSE_sfc_30mbdewp_345.txt.gz
Dewpoint
71 74 75 75 74 75 76 76 76 76 76 75 75 75 74 74 74 74 74 73 73 72 72 72 71 71 70 70 70 71 72 72 72 72 72 73 71 70 71 71 70 70 71
72 74 75 75 75 75 75 76 76 76 75 75 74 74 73 73 73 72 72 71 71 71 70 71 71 71 71 70 70 70 72 72 71 72 71 72 72 70 70 71 71 72 70
72 73 76 76 75 75 75 76 76 75 75 75 74 73 72 72 72 71 71 71 72 72 72 72 72 70 70 70 70 70 70 72 71 71 72 72 72 72 71 71 71 72 72
72 74 76 76 76 75 75 76 76 75 74 75 75 74 73 72 73 72 72 73 73 73 72 71 70 70 70 70 70 69 70 71 72 72 72 71 70 72 72 71 71 72 72
72 74 75 76 76 75 74 75 76 75 74 74 74 73 73 73 72 73 73 72 72 72 71 70 70 70 70 69 69 70 70 71 72 72 72 71 70 71 72 72 71 70 71
72 74 76 76 75 75 75 75 75 75 74 74 74 73 72 72 72 72 72 72 71 70 71 70 69 69 69 70 70 70 70 71 71 71 71 70 70 71 71 72 71 71 71
71 73 74 76 75 75 75 75 74 74 74 74 74 72 72 72 72 71 71 70 71 70 69 69 69 69 69 69 69 70 71 71 72 71 70 70 70 72 71 71 70 71 72
70 72 73 74 74 75 75 75 75 74 73 74 74 73 72 72 71 71 70 71 69 69 69 69 69 70 70 70 71 71 72 72 70 70 68 70 70 72 71 71 71 71 72
72 73 73 73 73 74 74 74 74 73 73 73 74 73 73 71 71 71 71 70 70 70 70 70 70 71 72 72 72 73 73 73 72 71 70 70 70 72 71 72 72 71 71
71 72 73 73 73 73 74 73 73 73 72 73 73 73 72 73 73 73 72 70 71 71 71 71 71 72 72 73 74 74 74 73 73 71 70 70 70 72 71 73 72 72 71
70 71 72 72 73 72 73 72 73 73 73 73 72 74 73 72 73 73 70 71 71 71 71 72 73 73 74 74 75 74 74 73 73 71 72 72 72 72 72 73 73 73 73
68 70 71 72 72 71 72 73 73 73 73 73 73 72 72 72 72 70 71 72 71 72 72 74 74 74 74 73 71 70 72 73 73 69 71 72 72 72 73 73 71 72 72
68 69 70 71 71 71 72 72 72 72 72 71 72 71 71 72 70 71 71 72 72 72 72 71 72 72 71 70 67 67 68 70 71 69 70 72 72 72 72 71 71 72 73
69 69 70 70 70 70 69 67 71 72 72 73 72 73 73 71 69 67 69 68 66 69 70 69 69 69 69 67 67 68 68 68 67 69 69 73 73 72 73 70 71 72 74
69 69 69 69 68 68 66 65 71 72 72 71 71 71 71 71 67 65 66 66 68 67 67 67 68 67 65 66 67 68 68 68 69 70 71 71 71 73 72 72 72 73 74
69 68 69 68 68 70 69 68 69 70 71 70 70 70 71 70 68 68 68 66 65 69 69 68 67 68 69 70 69 68 70 70 68 71 70 72 74 73 71 73 74 73 73
69 68 68 68 69 70 70 68 67 67 69 70 69 69 69 70 68 70 68 68 68 68 68 68 69 68 69 70 69 70 71 72 71 69 61 70 72 73 70 60 70 72 72
68 69 69 68 69 69 67 67 68 66 66 66 67 68 69 69 68 68 68 69 69 67 68 69 68 69 70 69 70 71 71 70 72 72 69 70 72 72 70 69 71 73 73
68 69 69 69 69 69 67 67 68 66 67 65 66 67 68 69 70 67 68 70 67 67 69 67 66 69 70 70 70 71 70 69 72 71 70 70 71 71 72 71 73 73 70
69 70 70 70 69 68 69 68 67 67 65 66 68 68 66 69 69 68 68 70 68 67 68 66 66 71 71 71 70 70 71 70 71 69 68 69 68 71 72 71 71 69 70
69 70 69 69 68 68 69 68 68 65 66 67 67 69 67 68 69 70 70 70 71 69 68 69 71 69 70 71 69 68 69 69 69 68 70 66 70 71 71 69 70 67 71
69 69 70 69 69 69 69 69 69 68 68 68 67 68 69 68 66 68 70 69 70 69 69 71 70 70 71 71 68 68 64 65 68 70 70 68 69 70 71 70 68 70 70
67 69 69 69 69 70 70 69 69 69 68 67 67 67 67 67 65 66 69 70 69 71 69 71 71 71 70 70 70 68 64 61 66 69 68 69 70 70 71 71 70 69 68
66 68 69 70 70 70 70 69 67 66 66 66 66 67 66 66 66 66 69 69 69 70 68 72 72 71 71 68 70 70 69 68 64 63 67 68 69 69 69 69 66 66 66
67 67 69 70 70 70 71 70 68 67 67 66 68 68 68 67 67 66 69 69 68 69 72 72 72 72 71 70 70 71 69 68 68 65 63 66 67 68 68 68 66 64 64
66 67 69 70 69 70 71 71 69 67 66 67 67 68 68 69 68 69 69 69 70 71 72 72 72 72 72 71 71 71 69 66 65 64 64 65 64 66 67 67 68 65 64